Corinth, MS

7:14 PM CST on January 20, 2018 (GMT -0600)
Turner

Weather History for KCRX - March, 2014

Change the Weather History Date:

Sunday, March 16, 2014

  Actual Average Record
Temperature  
Mean Temperature 50 °F -  
Max Temperature 62 °F 63 °F 85 °F (1945)
Min Temperature 37 °F 41 °F 23 °F (1970)
Degree Days  
Heating Degree Days 14    
Moisture  
Dew Point 49 °F    
Average Humidity 88    
Maximum Humidity 94    
Minimum Humidity 67    
Precipitation  
Precipitation 0.27 in - - ()
Sea Level Pressure  
Sea Level Pressure 29.71 in    
Wind  
Wind Speed 7 mph (ENE)    
Max Wind Speed 18 mph    
Max Gust Speed 28 mph    
Visibility 8 miles    
Events Rain    
Averages and records for this station are not official NWS values.
T = Trace of Precipitation, MM = Missing Value Source: NWS Daily Summary

Daily Weather History Graph

Daily Weather History Graph

Search for Another Location

Airport or City:

Trip Planner

Search our weather history database for the weather conditions in past years. The results will help you decide how hot, cold, wet, or windy it might be!

Date:

Astronomy

Mar. 16, 2014 Rise Set
Actual Time 7:03 AM CDT 7:02 PM CDT
Civil Twilight 6:38 AM CDT 7:28 PM CDT
Nautical Twilight 6:09 AM CDT 7:57 PM CDT
Astronomical Twilight 5:39 AM CDT 8:27 PM CDT
Moon 7:18 PM CDT (3/16) 6:47 AM CDT (3/16)
Length of Visible Light 12h 49m
Length of Day
11h 59m
Full, 100% of the Moon is Illuminated
Mar 16
Full
Mar 16
Full
Mar 23
Last Quarter
Mar 30
New
Apr 7
First Quarter

Hourly Weather History & Observations

Time (CDT) Temp. Windchill Dew Point Humidity Pressure Visibility Wind Dir Wind Speed Gust Speed Precip Events Conditions
12:10 AM 59.0 °F - 48.2 °F 67% 29.90 in 10.0 mi SSE 4.6 mph - N/A   Overcast
12:30 AM 57.2 °F - 48.2 °F 72% 29.89 in 9.0 mi South 5.8 mph - N/A Rain Light Rain
12:50 AM 57.2 °F - 50.0 °F 77% 29.88 in 9.0 mi South 4.6 mph - N/A Rain Light Rain
1:10 AM 55.4 °F - 50.0 °F 82% 29.87 in 10.0 mi SE 3.5 mph - N/A Rain Light Rain
1:30 AM 55.4 °F - 50.0 °F 82% 29.87 in 10.0 mi Calm Calm - 0.01 in Rain Light Rain
1:50 AM 55.4 °F - 50.0 °F 82% 29.86 in 7.0 mi SE 3.5 mph - 0.01 in Rain Light Rain
2:10 AM 55.4 °F - 51.8 °F 88% 29.85 in 5.0 mi SE 4.6 mph - 0.01 in Rain Light Rain
2:30 AM 55.4 °F - 51.8 °F 88% 29.84 in 5.0 mi ESE 5.8 mph - 0.03 in Rain Light Rain
2:50 AM 55.4 °F - 51.8 °F 88% 29.82 in 6.0 mi ESE 5.8 mph - 0.04 in Rain Light Rain
3:10 AM 55.4 °F - 51.8 °F 88% 29.80 in 5.0 mi ESE 8.1 mph - N/A Rain Light Rain
3:30 AM 55.4 °F - 53.6 °F 94% 29.78 in 5.0 mi ESE 6.9 mph - 0.01 in Rain Light Rain
3:50 AM 55.4 °F - 53.6 °F 94% 29.77 in 5.0 mi East 6.9 mph - 0.01 in Rain Light Rain
4:10 AM 55.4 °F - 53.6 °F 94% 29.75 in 4.0 mi East 6.9 mph - 0.01 in Rain Light Rain
4:30 AM 55.4 °F - 53.6 °F 94% 29.74 in 4.0 mi East 8.1 mph - 0.02 in Rain Light Rain
4:50 AM 55.4 °F - 53.6 °F 94% 29.74 in 4.0 mi NE 3.5 mph - 0.04 in Rain Light Rain
5:10 AM 55.4 °F - 53.6 °F 94% 29.74 in 3.0 mi NE 4.6 mph - 0.02 in Rain Rain
5:30 AM 55.4 °F - 53.6 °F 94% 29.70 in 3.0 mi East 10.4 mph - 0.09 in Rain Rain
5:50 AM 55.4 °F - 53.6 °F 94% 29.69 in 4.0 mi ENE 6.9 mph - 0.11 in Rain Rain
6:10 AM 55.4 °F - 53.6 °F 94% 29.66 in 5.0 mi NE 11.5 mph - N/A Rain Light Rain
6:30 AM 55.4 °F - 53.6 °F 94% 29.68 in 8.0 mi NE 5.8 mph - N/A Rain Light Rain
6:50 AM 55.4 °F - 53.6 °F 94% 29.67 in 8.0 mi NE 6.9 mph - N/A Rain Light Rain
7:10 AM 55.4 °F - 51.8 °F 88% 29.67 in 7.0 mi NE 5.8 mph - N/A Rain Light Rain
7:30 AM 55.4 °F - 51.8 °F 88% 29.67 in 4.0 mi ENE 3.5 mph - 0.01 in Rain Light Rain
7:50 AM 55.4 °F - 53.6 °F 94% 29.67 in 2.0 mi Calm Calm - 0.02 in Rain Light Rain
8:10 AM 55.4 °F - 53.6 °F 94% 29.67 in 5.0 mi ENE 5.8 mph - N/A Rain Light Rain
8:30 AM 55.4 °F - 53.6 °F 94% 29.67 in 5.0 mi ENE 3.5 mph - N/A Rain Light Rain
8:50 AM 55.4 °F - 53.6 °F 94% 29.67 in 2.0 mi Calm Calm - 0.01 in Rain Light Rain
9:10 AM 55.4 °F - 53.6 °F 94% 29.67 in 2.0 mi Calm Calm - 0.01 in Rain Light Rain
9:30 AM 55.4 °F - 53.6 °F 94% 29.66 in 3.0 mi Calm Calm - 0.01 in   Overcast
9:50 AM 55.4 °F - 53.6 °F 94% 29.67 in 3.0 mi Calm Calm - 0.01 in Rain Light Rain
10:10 AM 55.4 °F - 53.6 °F 94% 29.65 in 5.0 mi ESE 4.6 mph - N/A   Overcast
10:30 AM 57.2 °F - 53.6 °F 88% 29.64 in 6.0 mi Calm Calm - N/A   Overcast
10:50 AM 57.2 °F - 55.4 °F 94% 29.65 in 6.0 mi ESE 4.6 mph - N/A   Overcast
11:10 AM 57.2 °F - 55.4 °F 94% 29.65 in 10.0 mi SE 5.8 mph - N/A   Overcast
11:30 AM 59.0 °F - 55.4 °F 88% 29.64 in 10.0 mi SSE 5.8 mph - N/A   Overcast
11:50 AM 59.0 °F - 55.4 °F 88% 29.63 in 10.0 mi SSE 5.8 mph - N/A   Overcast
12:10 PM 59.0 °F - 55.4 °F 88% 29.63 in 10.0 mi SSE 6.9 mph - N/A   Overcast
12:30 PM 59.0 °F - 55.4 °F 88% 29.63 in 10.0 mi SSE 3.5 mph - N/A   Overcast
12:50 PM 59.0 °F - 55.4 °F 88% 29.63 in 10.0 mi South 4.6 mph - N/A   Overcast
1:10 PM 59.0 °F - 55.4 °F 88% 29.63 in 10.0 mi SSW 4.6 mph - N/A   Overcast
1:30 PM 60.8 °F - 55.4 °F 82% 29.62 in 7.0 mi South 4.6 mph - N/A   Overcast
1:50 PM 60.8 °F - 57.2 °F 88% 29.61 in 5.0 mi SSW 6.9 mph - N/A   Overcast
2:10 PM 59.0 °F - 57.2 °F 94% 29.60 in 5.0 mi West 3.5 mph - N/A Rain Light Rain
2:30 PM 62.6 °F - 57.2 °F 82% 29.59 in 10.0 mi West 3.5 mph - N/A   Mostly Cloudy
2:50 PM 62.6 °F - 57.2 °F 82% 29.59 in 10.0 mi WNW 3.5 mph - N/A   Mostly Cloudy
3:10 PM 62.6 °F - 57.2 °F 82% 29.58 in 2.0 mi Calm Calm - 0.02 in Rain Rain
3:30 PM 62.6 °F - 57.2 °F 82% 29.58 in 10.0 mi NW 5.8 mph - 0.02 in   Mostly Cloudy
3:50 PM 59.0 °F - 53.6 °F 82% 29.58 in 10.0 mi NNE 18.4 mph 24.2 mph 0.02 in   Overcast
4:10 PM 53.6 °F - 50.0 °F 88% 29.60 in 10.0 mi North 11.5 mph 20.7 mph N/A   Overcast
4:30 PM 50.0 °F - 46.4 °F 87% 29.61 in 10.0 mi North 15.0 mph 21.9 mph N/A Rain Light Rain
4:50 PM 48.2 °F - 46.4 °F 93% 29.63 in 5.0 mi North 16.1 mph 21.9 mph N/A Rain Light Rain
5:10 PM 48.2 °F - 44.6 °F 87% 29.64 in 10.0 mi North 15.0 mph 23.0 mph N/A   Overcast
5:30 PM 46.4 °F 40.1 °F 44.6 °F 93% 29.66 in 10.0 mi NNE 15.0 mph 23.0 mph N/A   Overcast
5:50 PM 46.4 °F 40.7 °F 42.8 °F 87% 29.69 in 10.0 mi North 12.7 mph 19.6 mph N/A   Overcast
6:10 PM 46.4 °F 39.8 °F 41.0 °F 81% 29.70 in 10.0 mi North 16.1 mph 21.9 mph N/A   Overcast
6:30 PM 44.6 °F 38.1 °F 41.0 °F 87% 29.70 in 10.0 mi North 13.8 mph 17.3 mph N/A   Overcast
6:50 PM 44.6 °F 37.4 °F 39.2 °F 81% 29.72 in 10.0 mi North 16.1 mph 25.3 mph N/A   Overcast
7:10 PM 42.8 °F 36.6 °F 39.2 °F 87% 29.73 in 10.0 mi North 11.5 mph 20.7 mph N/A   Overcast
7:30 PM 42.8 °F 36.2 °F 39.2 °F 87% 29.73 in 10.0 mi North 12.7 mph 20.7 mph N/A   Overcast
7:50 PM 41.0 °F 32.5 °F 37.4 °F 87% 29.75 in 10.0 mi North 17.3 mph 24.2 mph N/A   Overcast
8:10 PM 41.0 °F 33.1 °F 37.4 °F 87% 29.76 in 10.0 mi North 15.0 mph - N/A   Overcast
8:30 PM 41.0 °F 33.9 °F 37.4 °F 87% 29.77 in 10.0 mi NNE 12.7 mph 20.7 mph N/A   Overcast
8:50 PM 41.0 °F 34.3 °F 37.4 °F 87% 29.77 in 10.0 mi North 11.5 mph 18.4 mph N/A   Overcast
9:10 PM 39.2 °F 29.8 °F 35.6 °F 87% 29.78 in 10.0 mi NNE 18.4 mph 27.6 mph N/A   Overcast
9:30 PM 39.2 °F 32.0 °F 35.6 °F 87% 29.79 in 10.0 mi NNE 11.5 mph - N/A   Overcast
9:50 PM 39.2 °F 30.8 °F 35.6 °F 87% 29.81 in 10.0 mi NE 15.0 mph 20.7 mph N/A   Overcast
10:10 PM 39.2 °F 32.5 °F 35.6 °F 87% 29.82 in 10.0 mi North 10.4 mph - N/A   Overcast
10:30 PM 39.2 °F 30.5 °F 35.6 °F 87% 29.81 in 10.0 mi North 16.1 mph 20.7 mph N/A   Overcast
10:50 PM 39.2 °F 30.8 °F 33.8 °F 81% 29.79 in 10.0 mi NNE 15.0 mph 24.2 mph N/A   Overcast
11:10 PM 39.2 °F 30.5 °F 33.8 °F 81% 29.80 in 10.0 mi NNE 16.1 mph - N/A   Overcast
11:30 PM 39.2 °F 32.5 °F 33.8 °F 81% 29.82 in 10.0 mi North 10.4 mph - N/A   Overcast
11:50 PM 37.4 °F 30.3 °F 33.8 °F 87% 29.81 in 10.0 mi North 10.4 mph 19.6 mph N/A   Overcast